GFSFLT1_500_rhum_009.txt.gz
RH
20 46 42 44 37 51 94 100 94 90 97 58 39 61 94 98 85 70 70 66 67 57 48 26 19 15 14 14 14 14 15 14
62 55 58 56 60 66 65 69 68 67 41 51 72 94 83 82 78 82 75 68 41 28 25 26 22 20 19 18 18 18 18 16
98 97 100 95 63 61 87 52 42 48 52 54 69 82 65 66 73 76 63 44 32 29 24 22 22 24 24 23 24 23 22 20
100 98 93 86 92 83 72 62 59 57 55 57 58 70 75 79 70 51 35 25 23 27 29 31 31 30 29 28 28 26 26 25
79 91 79 100 91 76 64 63 64 61 60 73 79 83 78 62 44 32 28 30 33 36 39 41 37 35 34 34 32 30 27 24
89 76 78 80 85 78 62 62 65 69 78 85 84 67 51 36 31 31 38 39 40 40 41 40 36 34 34 37 35 28 22 17
61 79 93 99 82 75 69 79 82 80 77 54 41 37 33 32 33 35 35 34 38 38 33 42 45 44 42 35 26 18 13 12
96 98 91 79 71 71 75 79 64 49 46 46 40 34 31 33 33 29 26 26 29 38 46 47 47 42 31 23 17 13 10 8
94 80 62 73 75 63 45 30 29 34 34 28 27 28 27 31 31 26 29 43 44 46 52 49 38 27 26 18 14 10 17 68
53 59 68 56 53 35 35 41 48 43 35 34 35 37 38 34 31 43 52 52 52 49 46 39 29 16 14 10 19 86 98 56
41 64 72 51 42 43 46 52 54 48 45 44 45 43 36 33 42 46 42 43 45 46 36 24 16 12 10 68 72 99 95 98
33 36 42 49 51 54 62 63 54 51 51 53 48 38 38 38 36 37 42 45 46 33 23 14 10 10 16 86 100 97 100 91
29 37 48 82 72 73 68 59 61 63 59 51 44 38 36 37 45 49 50 48 37 23 16 10 13 17 22 30 90 100 100 78
34 39 52 62 60 57 62 72 71 65 58 45 39 39 39 36 45 48 51 38 25 18 10 12 17 21 32 100 100 98 56 61
39 46 51 57 63 73 82 81 75 59 46 42 39 31 28 33 47 53 42 31 22 10 12 16 21 26 99 85 72 64 62 54
39 44 58 79 92 95 92 78 58 52 50 41 32 31 37 48 55 44 29 19 11 11 14 21 23 59 73 70 67 63 58 50
49 58 78 89 96 88 76 66 61 55 42 37 36 42 50 58 48 32 21 11 11 15 24 22 28 57 66 67 67 64 52 45
46 53 76 85 81 79 73 68 54 45 43 42 46 51 57 48 35 19 11 13 16 29 39 48 58 64 65 57 69 65 52 43
50 67 73 79 80 72 64 57 53 49 47 48 56 53 46 36 21 12 13 15 19 43 61 59 63 67 57 50 71 64 50 35

GFSFLT1_500_rhum_015.txt.gz
RH
24 46 59 62 63 67 56 81 91 100 96 71 42 62 59 54 54 54 62 69 70 72 70 67 47 22 22 27 28 27 26 24
41 54 54 54 65 69 62 79 89 81 47 63 63 60 63 57 59 64 70 76 78 75 63 35 24 26 28 33 32 29 26 26
35 48 64 66 86 94 57 40 32 36 52 54 57 52 53 56 70 75 76 69 54 37 28 26 30 35 43 41 34 31 24 20
32 61 75 73 72 74 58 48 52 73 77 67 57 62 68 73 62 44 36 36 40 39 39 43 50 52 38 31 26 20 19 20
59 79 74 99 74 48 67 91 97 90 70 55 54 60 54 43 38 46 52 54 55 57 56 52 41 32 30 24 16 16 18 20
62 38 32 29 51 76 61 100 96 49 54 62 64 60 50 50 60 70 72 61 50 47 44 36 31 28 21 16 17 18 20 24
48 37 29 43 82 55 34 26 27 42 62 83 68 52 53 52 52 49 49 50 48 40 36 34 32 25 21 20 23 26 32 35
32 28 32 30 29 22 22 24 28 33 40 62 55 50 47 48 48 54 53 48 46 44 39 31 23 22 26 26 30 38 36 27
20 19 18 19 20 21 22 24 26 29 32 36 40 47 55 57 53 52 54 52 47 40 33 30 34 33 29 34 40 36 24 12
22 22 21 21 21 21 22 24 25 27 28 31 35 43 46 59 69 66 60 54 46 42 39 40 35 32 36 43 37 20 10 9
24 24 25 24 23 23 24 24 27 28 35 36 39 48 88 96 81 70 55 47 43 41 36 34 34 37 45 41 20 10 9 8
32 32 29 27 26 26 25 27 37 39 40 37 51 80 76 75 63 54 52 47 39 38 37 38 39 48 40 18 10 10 10 18
36 36 36 34 33 32 31 34 39 42 38 93 76 70 71 62 57 57 50 43 43 42 41 42 49 36 14 10 11 13 26 37
28 32 35 39 40 38 38 39 40 49 65 55 66 68 63 60 62 58 50 49 46 46 48 49 30 12 10 11 12 27 45 49
25 34 41 46 45 43 42 44 56 60 52 67 66 65 66 69 63 58 56 50 50 50 48 25 11 10 12 12 19 45 49 52
24 36 46 50 50 49 49 51 50 49 67 71 74 75 77 71 67 59 51 49 50 42 22 10 10 12 12 16 38 56 58 58
25 30 45 55 56 54 52 50 46 59 78 81 82 83 82 75 57 53 52 52 34 20 9 10 12 13 15 28 49 55 66 68
28 30 38 51 57 55 50 44 46 86 93 94 96 91 77 62 57 57 53 30 18 9 10 12 14 14 24 47 56 60 73 77
33 35 37 54 59 52 44 47 89 100 100 100 94 77 69 63 63 47 30 17 9 11 12 14 14 20 39 63 64 60 66 74

GFSFLT1_500_rhum_018.txt.gz
RH
35 53 67 73 74 72 72 68 79 92 100 91 67 41 47 59 63 60 59 69 77 79 80 80 71 59 47 33 24 22 22 23
23 31 52 61 55 60 62 67 89 71 57 46 44 53 66 66 64 55 56 67 64 48 36 31 31 32 34 34 36 38 44 40
23 29 33 39 59 63 80 84 70 54 60 54 55 66 66 53 48 49 51 44 37 39 48 54 59 62 59 58 54 46 39 34
25 40 62 75 70 74 78 73 55 38 45 79 92 79 36 44 52 46 44 43 48 59 68 74 69 63 55 48 44 40 35 26
50 57 53 45 42 54 34 32 34 28 29 32 27 26 33 56 84 72 73 73 68 64 61 61 56 53 50 45 39 32 26 27
48 47 45 27 22 23 21 19 21 22 21 21 23 32 37 42 49 64 63 55 58 58 60 56 54 50 42 36 32 29 29 29
29 26 21 17 18 18 18 19 19 20 19 21 23 27 32 32 34 36 41 48 59 65 59 60 50 42 35 30 31 33 32 31
20 18 17 18 18 18 19 19 19 19 20 21 23 26 30 32 34 38 45 62 75 74 66 49 44 40 34 37 39 37 32 32
18 20 21 23 23 22 21 21 21 21 21 23 26 27 28 33 38 42 58 62 63 58 48 47 45 44 47 43 31 30 33 37
22 23 26 28 28 27 27 27 28 30 30 35 99 59 37 40 32 75 83 62 55 52 56 53 51 52 38 31 33 34 31 18
28 32 34 33 32 34 35 35 36 36 37 70 70 40 43 43 60 62 69 66 64 63 57 56 53 35 35 36 34 23 12 8
29 30 26 27 30 31 37 41 43 44 43 42 43 40 48 51 56 73 70 70 70 66 65 54 35 36 39 32 20 8 8 11
19 20 20 22 25 29 37 43 46 48 49 46 45 44 49 51 72 72 74 73 70 71 56 39 39 42 29 13 6 8 11 13
21 22 22 23 23 25 33 44 50 55 57 51 47 45 45 70 83 83 77 76 73 57 43 41 42 27 9 7 9 11 12 14
23 24 24 25 25 26 28 36 52 64 59 53 45 42 62 87 88 81 77 70 61 49 46 45 32 9 7 10 11 13 14 24
25 25 26 25 26 29 33 38 49 62 57 49 49 66 89 88 85 79 74 65 52 49 48 39 10 7 11 12 13 14 22 36
27 27 27 27 30 33 41 47 60 59 53 62 83 93 93 89 90 86 76 68 49 49 46 12 7 12 14 15 15 21 37 50
30 30 30 31 33 44 54 63 59 59 72 95 98 97 94 88 88 86 87 55 44 52 16 8 10 14 15 17 23 30 36 51
32 33 36 40 53 59 64 60 65 81 98 98 98 98 95 88 90 87 69 44 53 31 8 10 13 16 20 24 35 36 36 47

GFSFLT1_500_rhum_024.txt.gz
RH
17 17 18 18 17 29 28 42 59 47 42 61 93 67 43 19 16 17 18 17 18 19 22 26 32 30 28 31 37 55 75 73
23 26 30 30 25 37 35 20 52 58 43 54 65 41 17 16 17 17 18 20 20 20 20 21 24 29 30 33 50 52 55 57
32 38 35 31 19 20 36 50 52 47 50 56 25 16 16 17 19 23 26 26 24 25 27 31 33 33 40 37 37 48 55 60
25 25 26 26 24 44 44 40 28 20 20 18 17 16 18 22 25 28 29 28 28 34 40 61 75 37 32 28 38 53 54 60
23 29 23 33 52 55 29 20 18 17 17 18 18 20 22 24 25 28 30 33 35 51 73 78 50 36 33 32 51 64 66 64
21 28 25 31 38 22 16 16 17 18 19 20 22 23 22 24 27 33 38 40 43 62 68 46 37 33 31 40 69 76 74 63
17 18 18 28 19 16 17 20 24 24 24 26 25 25 26 30 35 40 43 46 48 51 51 44 42 38 40 65 78 76 63 44
16 17 23 15 15 18 24 25 24 23 22 22 23 25 31 35 38 43 47 50 53 50 50 52 46 51 71 80 80 61 48 41
15 14 16 19 19 22 23 22 20 19 19 20 23 26 29 28 30 30 32 40 61 70 58 56 59 74 80 79 66 65 58 46
17 16 18 22 23 23 20 18 18 19 21 22 24 25 26 26 28 30 36 41 63 62 62 64 76 80 78 76 78 81 70 66
14 13 15 17 18 18 19 20 21 22 24 25 26 27 28 29 31 34 46 68 65 66 68 78 79 84 90 88 90 80 72 76
15 16 18 20 21 22 23 23 24 26 27 29 29 30 31 31 35 47 63 69 70 78 84 80 81 79 84 84 80 64 78 64
17 19 22 23 22 21 21 24 28 32 33 32 33 33 36 44 59 61 64 67 78 88 81 78 80 76 71 74 75 74 87 78
20 19 21 22 22 26 32 37 37 35 36 41 46 43 63 69 70 67 66 71 82 82 81 82 88 88 75 74 83 96 85 53
23 22 22 28 34 36 38 35 37 39 47 60 55 64 73 73 69 66 73 83 84 90 83 82 92 91 98 100 96 94 63 25
34 38 35 30 34 35 39 48 56 59 59 62 76 75 84 65 66 79 80 77 82 89 97 100 100 98 100 98 93 62 26 16
40 45 45 43 48 52 56 58 56 56 67 75 71 69 63 77 79 70 72 86 86 97 100 100 100 100 100 97 66 29 15 12
36 38 50 56 50 43 48 56 60 71 74 68 62 74 77 76 78 81 96 93 98 100 100 100 100 100 100 90 42 18 13 14
31 36 37 35 44 45 49 65 80 78 68 67 83 80 81 78 96 97 100 100 100 100 100 100 100 98 95 39 18 12 16 19

GFSFLT1_500_rhum_027.txt.gz
RH
15 14 13 18 23 55 66 34 45 56 69 79 68 62 60 24 19 18 21 24 27 28 27 27 32 37 43 48 50 40 31 28
17 15 10 13 21 37 22 48 66 46 56 52 41 36 18 18 17 21 22 25 25 27 30 34 40 45 51 49 41 35 35 31
10 10 8 10 21 34 57 71 59 26 19 27 18 17 18 18 21 22 24 26 28 30 34 36 37 38 40 45 41 44 39 37
14 13 9 10 12 24 61 70 41 17 17 18 17 18 20 21 22 23 24 26 28 32 38 42 42 45 48 48 47 49 44 50
16 18 16 13 16 34 75 50 20 17 19 20 20 19 20 21 24 22 25 28 31 34 36 36 40 41 44 42 51 53 56 62
16 17 22 20 20 35 21 22 17 21 23 20 18 17 16 18 19 21 22 24 24 24 27 28 31 37 50 48 57 59 66 61
18 18 18 18 23 29 17 18 23 24 21 19 18 18 19 20 21 22 23 24 25 27 28 30 36 45 60 59 63 67 61 59
16 18 18 18 17 18 19 20 24 23 20 17 19 20 21 22 23 25 26 28 29 29 31 40 87 68 62 65 74 68 62 68
18 15 17 21 22 19 18 20 20 20 20 21 22 22 24 25 27 30 31 33 33 36 48 95 86 66 68 72 73 74 76 76
18 18 14 14 15 16 16 17 19 22 23 24 24 25 28 31 33 34 36 40 51 60 65 65 66 67 72 78 80 80 80 82
15 14 14 16 18 19 20 20 22 22 23 25 31 37 37 37 46 72 53 55 71 70 68 66 64 70 71 89 92 87 89 82
15 15 16 18 21 22 21 21 23 30 40 42 42 39 44 54 62 69 55 67 89 74 60 67 72 62 55 70 79 77 76 78
14 14 16 19 21 24 29 31 31 33 42 41 41 60 63 64 64 55 61 69 66 56 70 63 65 65 81 84 78 85 92 100
16 16 17 18 20 33 47 62 52 47 54 59 62 59 59 54 57 68 60 56 66 61 63 74 81 96 100 100 96 100 100 100
18 14 16 19 28 35 44 73 75 78 73 64 60 53 56 66 74 62 61 69 54 57 66 66 91 97 91 100 100 100 100 100
25 27 31 46 45 69 63 66 70 77 49 59 54 59 75 79 64 68 73 70 76 92 92 97 94 84 100 100 100 100 100 88
34 26 20 35 31 75 74 69 52 44 55 61 72 77 67 67 72 78 75 68 74 65 75 100 100 100 100 100 100 100 97 33
33 32 25 18 28 66 52 53 61 70 74 71 57 62 76 80 83 84 77 81 72 100 95 89 99 100 100 100 99 90 27 12
14 19 27 23 30 47 69 82 75 59 54 56 72 80 83 78 82 80 100 100 100 100 100 100 100 98 100 99 69 29 12 12

GFSFLT1_500_rhum_030.txt.gz
RH
15 19 19 25 22 26 35 22 49 59 40 50 46 56 55 34 20 18 19 22 21 23 25 29 30 33 36 41 46 47 45 48
15 14 20 19 22 21 26 60 86 68 38 23 26 20 19 20 20 20 20 19 22 26 28 29 31 32 34 32 33 36 39 43
12 13 14 19 24 21 45 70 78 48 19 27 19 19 20 21 21 20 21 23 24 25 26 26 26 27 27 28 29 30 32 42
11 12 13 14 19 26 32 84 75 29 18 20 21 21 23 23 25 24 23 22 23 24 26 27 28 28 28 30 33 36 46 56
15 12 11 12 20 45 67 62 53 18 50 26 24 24 25 25 23 22 24 24 24 25 27 29 28 28 29 32 42 53 64 60
15 15 16 18 20 22 59 37 27 20 32 34 25 27 26 22 22 22 23 24 24 25 28 28 28 30 34 43 55 74 63 63
17 15 18 20 31 20 47 36 25 22 26 27 25 23 20 21 22 22 22 23 27 30 31 39 45 48 60 59 59 63 61 59
16 16 16 19 25 51 55 29 24 25 22 24 20 22 21 20 19 21 26 33 34 46 66 71 61 56 60 63 60 60 61 57
17 17 20 28 59 44 47 25 18 18 20 25 27 19 20 23 28 31 35 37 55 61 63 67 56 64 66 77 59 64 56 63
17 18 22 26 51 36 28 27 23 22 22 32 30 25 26 30 32 37 38 57 65 67 67 75 67 69 62 62 67 68 65 67
16 16 16 18 21 24 25 21 21 22 30 38 36 43 40 40 46 45 59 64 63 64 64 70 62 62 65 64 64 67 74 85
16 18 19 20 18 17 19 20 23 31 47 62 67 68 70 81 77 59 64 64 66 77 75 64 61 69 78 78 76 86 100 100
17 18 18 18 19 20 21 27 50 57 64 82 87 90 95 86 50 56 60 71 80 69 62 62 72 80 72 69 75 68 68 96
16 17 16 16 20 26 48 52 46 63 75 91 94 80 78 47 47 61 76 67 61 64 65 65 78 68 82 93 72 72 77 100
14 16 9 8 8 11 11 43 59 100 98 95 81 59 48 63 66 64 62 64 64 62 60 63 71 79 92 88 98 100 97 97
13 31 8 6 7 8 18 54 83 87 83 69 54 59 74 70 61 63 63 62 61 65 82 92 85 79 70 100 100 96 100 100
8 8 10 12 10 13 45 31 76 79 56 57 67 72 61 57 63 57 59 69 67 70 78 86 81 95 100 100 100 100 99 68
22 23 16 12 11 15 22 35 45 56 61 62 58 54 59 62 66 68 67 59 92 100 97 99 100 100 100 100 100 84 46 21
12 10 10 13 19 27 39 51 83 79 74 75 68 75 71 69 66 64 83 100 100 100 100 100 100 100 100 96 57 27 18 14